#timestamp,LO_Frequency,Hit,StdDev 
1525395615.1,286046997.9,N
1525395635.9,286046998.0,N
1525395655.7,286046995.8,Y
1525395675.6,286046999.5,P
1525395695.4,286046996.9,P
1525395715.2,286046996.5,P
1525395735.1,286046996.6,N
1525395736.0,286046996.6,N
1525395755.8,286046997.0,N
1525395775.7,286046996.5,Y
1525395795.5,286047002.7,P
1525395815.3,286047000.1,N
1525395835.2,286047002.7,N
1525395855.0,286047003.7,N
1525395855.9,286047003.7,N
1525395875.7,286047000.1,N
1525395895.6,286047000.2,N
1525395915.4,286046998.1,N
1525395935.3,286046998.2,N
1525395955.1,286047000.8,N
1525395956.0,286047000.8,N
1525395975.8,286047000.6,N
1525395995.7,286047000.4,N
1525396015.5,286046999.7,N
1525396035.4,286047002.3,N
1525396055.2,286047002.3,N
1525396075.0,286046999.7,N
1525396075.9,286046999.7,N
1525396095.8,286047002.7,N
1525396115.6,286046999.8,N
1525396135.4,286047001.0,N
1525396155.3,286046998.7,N
1525396175.1,286046998.2,N
1525396195.9,286046998.6,N
1525396215.7,286046998.3,N
1525396235.5,286046999.1,N
1525396255.4,286046998.6,N
1525396275.2,286046998.2,N
1525396295.0,286046998.9,N
1525396296.0,286046998.9,N
1525396315.8,286046998.9,N
1525396335.6,286046999.2,N
1525396355.5,286046996.7,N
1525396375.3,286046996.9,N
1525396395.1,286046998.4,N
1525396415.9,286046997.7,N
1525396435.7,286046997.1,N
1525396455.6,286046994.9,Y
1525396475.4,286046997.4,P
1525396495.2,286046997.1,P
1525396515.1,286046996.8,P
1525396516.0,286046996.8,Y
1525396535.8,286046998.3,P
1525396555.7,286047000.5,N
1525396575.5,286047000.5,N
1525396595.3,286047000.5,N
1525396615.2,286046999.9,N
1525396635.9,286047001.9,N
1525396655.7,286046999.8,N
1525396675.6,286047001.1,N
1525396695.4,286047001.1,N
1525396715.3,286046998.4,N
1525396735.1,286047000.7,N
1525396736.0,286047000.7,N
1525396755.8,286047000.1,N
1525396775.7,286047000.6,N
1525396795.5,286047001.1,N
1525396815.3,286046999.8,N
1525396835.2,286047000.5,N
1525396855.0,286046998.2,N
1525396855.9,286046998.2,N
1525396875.8,286047000.4,N
1525396895.6,286047000.4,N
1525396915.4,286046998.1,N
1525396935.3,286046998.1,N
1525396955.1,286047000.2,N
1525396975.8,286047000.4,N
1525396995.7,286047000.9,N
1525397015.5,286047000.5,N
1525397035.4,286047000.0,N
1525397055.2,286047002.7,N
1525397075.0,286047000.5,N
1525397075.9,286047000.5,N
1525397095.8,286047000.0,N
1525397115.6,286046998.1,N
1525397135.5,286046999.2,N
1525397155.3,286046997.1,N
1525397175.1,286046997.8,N
1525397195.9,286046997.6,N
1525397215.7,286046998.0,N
1525397235.5,286046997.3,N
1525397255.4,286046996.1,N
1525397275.2,286046995.7,N
1525397295.1,286046995.1,Y
1525397296.0,286046995.1,P
1525397315.8,286046997.7,N
1525397335.6,286046997.8,N
1525397355.5,286046995.8,N
1525397375.3,286046995.1,Y
1525397395.2,286046999.2,P
1525397415.9,286046998.8,N
1525397435.7,286046999.3,N
1525397455.6,286046999.0,N
1525397475.4,286046998.6,N
1525397495.2,286046999.9,N
1525397515.1,286047000.1,N
1525397516.0,286047000.1,N
1525397535.8,286047000.5,N
1525397555.7,286047001.0,N
1525397575.5,286047000.3,N
1525397595.3,286047000.5,N
1525397615.2,286047002.8,N
1525397635.9,286047000.5,N
1525397655.7,286047000.5,N
1525397675.6,286046998.5,N
1525397695.4,286046998.7,N
1525397715.2,286046998.7,N
1525397735.1,286047000.8,N
1525397736.0,286047000.8,N
1525397755.8,286047000.5,N
1525397775.7,286047000.6,N
1525397795.5,286047000.9,N
1525397815.3,286046999.9,N
1525397835.2,286047000.4,N
1525397855.0,286047000.6,N
1525397855.9,286047000.6,N
1525397875.8,286047002.6,N
1525397895.6,286047004.3,Y
1525397915.4,286047004.2,P
1525397935.3,286047002.8,N
1525397955.1,286046999.7,N
1525397975.8,286047000.1,N
1525397995.7,286047002.4,N
1525398015.5,286047004.2,N
1525398035.4,286047004.0,N
1525398055.2,286047004.0,N
1525398075.0,286047001.6,N
1525398075.9,286047001.6,N
1525398095.8,286047003.2,N
1525398115.6,286047002.9,N
1525398135.4,286047005.5,Y
1525398155.3,286047001.9,P
1525398175.1,286047000.3,N
1525398195.9,286047000.6,N
1525398215.7,286047000.9,N
1525398235.5,286047000.7,N
1525398255.4,286047000.1,N
1525398275.2,286047001.9,N
1525398295.0,286047002.3,N
1525398295.9,286047002.3,N
1525398315.8,286047002.7,Y
1525398335.6,286046998.6,P
1525398355.5,286046998.6,N
1525398375.3,286047000.4,N
1525398395.1,286047002.8,N
1525398415.9,286046999.7,N
1525398435.7,286047002.4,N
1525398455.6,286047001.6,N
1525398475.4,286047001.5,N
1525398495.2,286047002.7,N
1525398515.1,286047002.2,N
1525398516.0,286047002.2,N
1525398535.8,286047002.3,N
1525398555.6,286047000.1,N
1525398575.5,286047000.5,N
1525398595.3,286047000.3,N
1525398615.2,286047002.8,N
1525398635.9,286047000.4,N
1525398655.7,286047000.1,N
1525398675.6,286047003.5,N
1525398695.4,286047003.2,N
1525398715.2,286047004.4,Y
1525398735.1,286047001.8,P
1525398736.0,286047001.8,P
1525398755.8,286047000.3,N
1525398775.7,286047000.4,N
1525398795.5,286046998.5,N
1525398815.3,286046999.3,N
1525398835.2,286046998.4,N
1525398855.0,286046998.9,N
1525398855.9,286046998.9,N
1525398875.8,286046999.9,N
1525398895.6,286047000.2,N
1525398915.4,286047000.8,N
1525398935.3,286047000.4,N
1525398955.1,286047000.3,N
1525398975.9,286047000.3,N
1525398995.7,286047000.8,N
1525399015.5,286047001.9,N
1525399035.4,286047001.4,N
1525399055.2,286047001.9,N
1525399075.0,286047003.9,Y
1525399076.0,286047003.9,P
1525399095.8,286047004.1,N
1525399115.6,286047001.4,N
1525399135.5,286047002.8,N
1525399155.3,286047002.8,N
1525399175.1,286046999.7,N
1525399195.9,286046999.7,N
